Location: Chuathbaluk
(61.5726°N, 159.2454°W)
Time: 16:08:28
(UTC+00:00)

ZACube-1 - Pass Details

Date: 21 January 2021
Orbit: 583 x 666 km, 97.6° (Epoch: 04 March)

Event Time Altitude Azimuth Distance (km) Brightness Sun altitude
Rises 18:21:24 0° 16° (NNE) 3,024 ? -6.9°
Reaches altitude 10° 18:24:14 10° 358° (N) 2,109 ? -6.6°
Maximum altitude 18:27:19 18° 316° (NW) 1,629 ? -6.3°
Drops below altitude 10° 18:30:23 10° 274° (W) 2,096 ? -6.0°
Sets 18:33:11 0° 255° (WSW) 2,998 ? -5.7°
